User: anonymous   Login
Location: Brachbach
(49.1847°N, 9.7240°E)
Time: 16:20:29
(UTC+00:00)
Language:

Cosmos 2151 Rocket - Orbit

View from above orbital plane
View from above orbital plane
View from above satellite
View from above satellite

Ground track
Ground track

The orbit data is extracted from the following two-line orbital elements,

1 21423U 91042B   24196.11819990  .00000722  00000-0  90391-4 0  9995
2 21423  82.4924  65.8388 0018716  65.5936 294.7228 14.80830323784755
Epoch (UTC): 14 July 2024 02:50:12
Eccentricity: 0.0018716
inclination: 82.4924°
perigee height: 613 km
apogee height: 640 km
right ascension of ascending node: 65.8388°
argument of perigee: 65.5936°
revolutions per day: 14.80830323
mean anomaly at epoch: 294.7228°
orbit number at epoch: 78475

The dashed part of the orbit path shows where the satellite is in the earth's shadow,  

DLR